Le nostre stazioni meteo in Italia

Pubblicità
Il mio iltempo24.it
Kleine Brogel, Belgio (6479): Temperatura & dewpoint: 13.04.2019 17:00:00 - 19.04.2019 17:00:00 (CEST)Kleine Brogel, Belgio (6479): velocità del vento & gusts: 13.04.2019 17:00:00 - 19.04.2019 17:00:00 (CEST)Kleine Brogel, Belgio (6479): direzione del vento: 13.04.2019 17:00:00 - 19.04.2019 17:00:00 (CEST)Kleine Brogel, Belgio (6479): reduced air pressure: 13.04.2019 17:00:00 - 19.04.2019 17:00:00 (CEST)Kleine Brogel, Belgio (6479): visibility: 13.04.2019 17:00:00 - 19.04.2019 17:00:00 (CEST)
Data & Tempo tt [°C] td [°C] ff [km/h] ff [kn] fx [km/h] fx [kn] dd ppp [hPa] vv [km]
19.04.2019 17:00:00 23,7 -0,3 11 6 - - ESE 1027,0 20
19.04.2019 16:00:00 23,7 1,6 14 8 29 16 ESE 1027,2 20
19.04.2019 15:00:00 23,4 2,0 14 8 32 18 E 1027,4 20
19.04.2019 14:00:00 23,1 2,6 18 10 - - E 1027,5 20
19.04.2019 13:00:00 22,3 3,3 22 12 32 18 ENE 1027,7 20
19.04.2019 12:00:00 20,5 3,9 15 8 25 14 ENE 1028,0 10
19.04.2019 11:00:00 18,8 4,3 14 8 - - E 1028,4 20
19.04.2019 10:00:00 16,5 3,5 18 10 25 14 E 1028,2 20
19.04.2019 09:00:00 13,8 4,0 14 8 22 12 ENE 1028,0 20
19.04.2019 08:00:00 11,2 3,5 7 4 - - ENE 1027,9 20
19.04.2019 07:00:00 9,7 2,6 7 4 11 6 ENE 1027,4 15
19.04.2019 06:00:00 9,7 2,7 7 4 7 4 ENE 1027,0 20
19.04.2019 05:00:00 10,2 2,5 4 2 - - N 1026,7 20
19.04.2019 04:00:00 11,3 2,6 4 2 11 6 N 1026,5 20
19.04.2019 03:00:00 11,8 2,6 7 4 14 8 E 1026,4 20
19.04.2019 02:00:00 12,5 2,7 11 6 - - ENE 1026,4 20
19.04.2019 01:00:00 12,7 2,6 11 6 14 8 ENE 1026,2 20
19.04.2019 00:00:00 13,3 2,4 11 6 18 10 ENE 1025,9 20
18.04.2019 23:00:00 15,3 2,1 11 6 - - ENE 1025,4 20
18.04.2019 22:00:00 16,0 2,2 11 6 22 12 ENE 1024,7 20
18.04.2019 21:00:00 16,2 3,3 7 4 18 10 ENE 1024,4 20
18.04.2019 20:00:00 20,6 2,4 11 6 - - E 1023,6 20
18.04.2019 19:00:00 21,7 1,5 11 6 32 18 E 1023,2 20
18.04.2019 18:00:00 22,1 1,2 18 10 32 18 E 1023,2 20
18.04.2019 17:00:00 22,3 0,9 14 8 - - E 1023,3 20
18.04.2019 16:00:00 21,9 2,4 18 10 32 18 E 1023,7 20
18.04.2019 15:00:00 21,2 3,2 22 12 40 21 E 1023,8 20
18.04.2019 14:00:00 20,9 3,8 22 12 - - E 1024,2 20
18.04.2019 13:00:00 19,7 4,3 18 10 36 19 E 1024,7 20
18.04.2019 12:00:00 18,9 4,1 22 12 32 18 E 1025,0 20
18.04.2019 11:00:00 17,4 4,7 18 10 - - E 1025,2 20
18.04.2019 10:00:00 15,5 4,0 14 8 29 16 E 1025,2 20
18.04.2019 09:00:00 13,3 3,2 11 6 22 12 E 1024,7 20
18.04.2019 08:00:00 11,8 3,2 11 6 - - E 1024,5 20
18.04.2019 07:00:00 9,8 3,3 4 2 14 8 N 1024,0 20
18.04.2019 06:00:00 10,1 4,1 7 4 14 8 ENE 1023,5 19
18.04.2019 05:00:00 10,3 5,2 7 4 - - ENE 1023,7 20
18.04.2019 04:00:00 9,4 6,0 7 4 7 4 NE 1023,6 15
18.04.2019 03:00:00 9,5 7,4 4 2 7 4 N 1023,5 12
18.04.2019 02:00:00 8,8 7,2 4 2 - - - 1023,6 10
18.04.2019 01:00:00 8,9 6,9 4 2 7 4 N 1023,6 12
18.04.2019 00:00:00 10,0 7,7 4 2 7 4 N 1023,3 13
17.04.2019 23:00:00 8,8 7,1 4 2 - - N 1023,2 14
17.04.2019 22:00:00 10,3 7,6 4 2 7 4 N 1023,0 16
17.04.2019 21:00:00 11,6 7,9 7 4 7 4 N 1022,7 16
17.04.2019 20:00:00 14,1 8,4 4 2 - - N 1022,3 20
17.04.2019 19:00:00 15,3 8,0 7 4 11 6 NE 1022,2 18
17.04.2019 18:00:00 15,6 6,9 4 2 14 8 N 1022,3 17
17.04.2019 17:00:00 15,2 8,8 7 4 - - E 1022,2 12
17.04.2019 16:00:00 14,5 8,4 7 4 11 6 N 1022,3 12
17.04.2019 15:00:00 14,8 8,2 7 4 14 8 E 1022,2 12
17.04.2019 14:00:00 13,4 9,0 4 2 - - N 1022,2 12
17.04.2019 13:00:00 13,5 8,7 4 2 11 6 N 1022,1 12
17.04.2019 12:00:00 13,6 8,9 4 2 11 6 N 1022,0 12
17.04.2019 11:00:00 13,3 9,2 4 2 - - N 1021,7 12
17.04.2019 10:00:00 11,8 9,1 4 2 11 6 N 1021,5 12
17.04.2019 09:00:00 11,0 8,7 4 2 11 6 N 1021,1 12
17.04.2019 08:00:00 10,3 8,5 4 2 - - N 1020,7 12
17.04.2019 07:00:00 10,0 8,4 4 2 7 4 N 1020,1 19
17.04.2019 06:00:00 10,0 8,6 4 2 7 4 N 1019,7 20
17.04.2019 05:00:00 10,3 8,7 4 2 - - N 1019,7 12
17.04.2019 04:00:00 11,1 7,7 4 2 7 4 N 1019,7 20
17.04.2019 03:00:00 10,8 7,5 4 2 7 4 N 1019,3 20
17.04.2019 02:00:00 10,3 7,2 4 2 - - N 1019,3 20
17.04.2019 01:00:00 10,7 6,9 4 2 4 2 N 1019,2 20
17.04.2019 00:00:00 11,6 7,2 4 2 11 6 N 1019,2 20
16.04.2019 23:00:00 12,1 7,5 7 4 - - N 1018,7 20
16.04.2019 22:00:00 13,0 7,3 4 2 14 8 N 1018,7 20
16.04.2019 21:00:00 13,5 7,1 7 4 18 10 S 1018,1 20
16.04.2019 20:00:00 14,4 6,5 11 6 - - SSO 1017,2 20
16.04.2019 19:00:00 16,0 6,1 11 6 25 14 SSO 1016,5 20
16.04.2019 18:00:00 17,1 5,2 18 10 29 16 SSO 1015,8 20
16.04.2019 17:00:00 18,7 4,9 14 8 - - S 1015,2 20
16.04.2019 16:00:00 19,5 4,0 7 4 25 14 SSE 1015,1 20
16.04.2019 15:00:00 18,7 3,4 7 4 22 12 E 1015,2 20
16.04.2019 14:00:00 17,7 2,7 7 4 - - ESE 1015,2 20
16.04.2019 13:00:00 17,0 1,9 11 6 25 14 ESE 1015,5 20
16.04.2019 12:00:00 15,0 1,3 14 8 25 14 E 1015,7 20
16.04.2019 11:00:00 13,9 1,1 14 8 - - E 1016,0 20
16.04.2019 10:00:00 11,8 0,5 14 8 25 14 E 1016,2 20
16.04.2019 09:00:00 9,5 0,4 11 6 18 10 E 1016,7 20
16.04.2019 08:00:00 7,0 -0,1 7 4 - - ENE 1016,7 20
16.04.2019 07:00:00 5,4 -0,6 7 4 11 6 ENE 1016,7 20
16.04.2019 06:00:00 6,1 -0,6 7 4 11 6 ENE 1016,7 20
16.04.2019 05:00:00 6,1 -0,3 7 4 - - ENE 1017,2 20
16.04.2019 04:00:00 6,7 0,0 11 6 14 8 ENE 1017,2 20
16.04.2019 03:00:00 7,8 0,2 11 6 14 8 ENE 1017,6 20
16.04.2019 02:00:00 8,5 0,7 11 6 - - E 1018,0 20
16.04.2019 01:00:00 8,3 1,1 11 6 18 10 ENE 1018,3 20
16.04.2019 00:00:00 9,6 1,0 11 6 14 8 ENE 1018,3 20
15.04.2019 23:00:00 10,1 1,2 11 6 - - ENE 1018,3 20
15.04.2019 22:00:00 11,8 1,4 11 6 18 10 ENE 1018,3 20
15.04.2019 21:00:00 13,1 2,2 11 6 22 12 ENE 1018,3 20
15.04.2019 20:00:00 16,0 2,9 7 4 - - E 1018,2 20
15.04.2019 19:00:00 17,0 2,6 14 8 29 16 E 1018,3 20
15.04.2019 18:00:00 17,1 3,0 14 8 32 18 E 1019,1 19
15.04.2019 17:00:00 16,9 3,6 18 10 - - E 1019,7 17
15.04.2019 16:00:00 15,9 3,7 14 8 36 19 E 1020,7 18
15.04.2019 15:00:00 14,7 3,9 14 8 32 18 E 1022,2 13
15.04.2019 14:00:00 13,3 4,0 14 8 - - E 1023,2 19
15.04.2019 13:00:00 12,2 3,4 14 8 25 14 E 1024,0 16
15.04.2019 12:00:00 10,2 2,6 11 6 32 18 E 1025,0 15
15.04.2019 11:00:00 8,7 2,2 14 8 - - E 1025,7 19
15.04.2019 10:00:00 7,4 2,1 11 6 22 12 E 1026,2 15
15.04.2019 09:00:00 5,0 2,2 7 4 14 8 E 1026,5 11
15.04.2019 08:00:00 1,0 0,1 2 1 - - - 1026,7 7
15.04.2019 07:00:00 -0,4 -1,3 2 1 4 2 - 1026,7 4,5
15.04.2019 06:00:00 0,9 0,0 4 2 7 4 N 1026,9 6
15.04.2019 05:00:00 1,7 0,1 7 4 - - ENE 1027,0 12
15.04.2019 04:00:00 2,5 0,4 7 4 11 6 NE 1027,2 15
15.04.2019 03:00:00 3,4 0,2 4 2 11 6 N 1027,5 18
15.04.2019 02:00:00 3,5 -0,4 4 2 - - N 1027,5 20
15.04.2019 01:00:00 2,1 -2,0 4 2 11 6 N 1027,5 19
15.04.2019 00:00:00 4,1 -1,1 7 4 18 10 NE 1027,0 19
14.04.2019 23:00:00 5,8 -1,3 14 8 - - ENE 1026,7 20
14.04.2019 22:00:00 6,5 -1,9 11 6 18 10 ENE 1026,7 20
14.04.2019 21:00:00 7,3 -2,6 7 4 25 14 NNE 1026,2 20
14.04.2019 20:00:00 9,1 -2,8 14 8 - - ENE 1025,5 20
14.04.2019 19:00:00 10,3 -2,6 18 10 29 16 ENE 1025,2 20
14.04.2019 18:00:00 10,9 -2,9 18 10 32 18 ENE 1024,7 20
14.04.2019 17:00:00 12,0 -3,4 22 12 - - NE 1024,4 20
14.04.2019 16:00:00 11,2 -3,9 14 8 36 19 E 1024,9 20
14.04.2019 15:00:00 11,2 -2,3 18 10 32 18 ENE 1025,0 18
14.04.2019 14:00:00 9,2 -2,6 14 8 - - E 1025,2 15
14.04.2019 13:00:00 8,4 -0,9 18 10 25 14 NE 1025,2 16
14.04.2019 12:00:00 7,5 0,3 11 6 25 14 NE 1025,5 13
14.04.2019 11:00:00 5,5 1,1 11 6 - - NE 1025,5 9
14.04.2019 10:00:00 3,2 0,7 15 8 22 12 NE 1025,2 6
14.04.2019 09:00:00 1,7 0,7 11 6 22 12 NE 1025,2 4,7
14.04.2019 08:00:00 0,5 -0,1 4 2 - - N 1025,0 5
14.04.2019 07:00:00 -0,7 -1,4 7 4 11 6 NNE 1024,7 4,2
14.04.2019 06:00:00 -0,2 -0,8 7 4 11 6 NNE 1024,4 5
14.04.2019 05:00:00 -1,3 -1,9 4 2 - - N 1024,5 5
14.04.2019 04:00:00 -1,2 -2,0 4 2 7 4 N 1024,2 6
14.04.2019 03:00:00 -1,0 -1,7 4 2 7 4 N 1024,4 9
14.04.2019 02:00:00 -0,5 -1,7 4 2 - - N 1024,7 10
14.04.2019 01:00:00 -0,1 -1,4 7 4 11 6 NNE 1024,7 13
14.04.2019 00:00:00 0,1 -1,5 4 2 11 6 N 1024,7 19
13.04.2019 23:00:00 0,2 -1,4 4 2 - - N 1024,9 20
13.04.2019 22:00:00 1,2 -1,0 4 2 11 6 N 1024,9 20
13.04.2019 21:00:00 2,5 -0,7 7 4 32 18 NNO 1024,7 20
13.04.2019 20:00:00 4,9 -2,9 7 4 - - N 1024,2 20
13.04.2019 19:00:00 5,4 -1,5 14 8 32 18 NE 1024,2 20
13.04.2019 18:00:00 7,1 -4,9 11 6 32 18 NNE 1024,0 20
13.04.2019 17:00:00 7,0 -5,7 22 12 - - NE 1024,4 20

tt = Temperatura
td = dewpoint
ff = velocità del vento
fx = gusts
dd = direzione del vento
ppp = reduced air pressure
vv = visibility

Stazioni seguenti

WeatherPro
AMSI
MeteoEarth